Date,TemperatureHighF,TemperatureAvgF,TemperatureLowF,DewpointHighF,DewpointAvgF,DewpointLowF,HumidityHigh,HumidityAvg,HumidityLow,PressureMaxIn,PressureMinIn,WindSpeedMaxMPH,WindSpeedAvgMPH,GustSpeedMaxMPH,PrecipitationSumIn
2013-1-1,51.3,40.8,33.4,38.0,33.9,31.0,91,78,55,30.32,30.25,16,2,16,0.00
2013-1-2,55.7,40.0,29.8,37.0,32.3,28.0,94,77,43,30.29,30.15,5,1,7,0.00
2013-1-3,55.3,40.5,30.7,42.0,34.8,29.0,93,81,60,30.29,30.20,8,1,9,0.00
2013-1-4,56.5,42.6,33.2,39.0,35.4,31.0,94,78,48,30.30,30.18,7,1,9,0.01
2013-1-5,53.3,43.1,35.1,45.0,39.9,33.0,97,89,72,30.27,30.07,6,1,10,0.19
2013-1-6,47.3,42.8,37.1,44.0,41.5,36.0,97,95,86,30.21,30.09,10,2,13,0.08
2013-1-7,59.0,43.9,33.4,47.0,40.5,33.0,98,89,64,30.27,30.16,5,1,7,0.01
2013-1-8,58.3,45.4,37.7,47.0,42.0,36.0,98,89,66,30.26,30.13,6,1,7,0.01
2013-1-9,52.2,44.4,38.4,49.0,41.1,35.0,98,89,71,30.18,29.98,9,2,23,0.02
2013-1-10,49.5,42.2,35.3,36.0,33.5,30.0,90,72,49,30.20,30.07,6,2,13,0.00
2013-1-11,50.4,40.7,31.5,41.0,34.1,29.0,94,78,56,30.27,30.13,10,1,15,0.04
2013-1-12,49.1,39.8,31.7,36.0,29.7,24.0,94,70,38,30.27,30.14,7,1,8,0.01
2013-1-13,48.4,36.8,26.0,29.0,22.4,12.0,92,61,28,30.30,30.18,9,2,16,0.00
2013-1-14,51.9,41.8,33.7,26.0,16.6,10.0,72,38,20,30.42,30.25,13,4,20,0.00
2013-1-15,52.8,39.3,30.1,32.0,27.8,25.0,84,65,42,30.49,30.41,6,1,9,0.00
2013-1-16,57.7,40.8,30.0,36.0,31.2,27.0,90,71,39,30.47,30.28,5,1,8,0.00
2013-1-17,63.1,44.0,30.4,38.0,32.4,28.0,90,68,32,30.31,30.16,9,1,10,0.00
2013-1-18,64.0,44.8,31.6,38.0,32.0,29.0,90,66,28,30.27,30.14,9,1,9,0.00
2013-1-19,61.1,44.7,32.4,37.0,33.3,29.0,87,68,39,30.28,30.18,9,1,10,0.00
2013-1-20,63.6,45.3,31.8,37.0,32.4,27.0,90,66,28,30.27,30.14,7,1,11,0.00
2013-1-21,64.6,44.8,31.4,41.0,35.4,28.0,89,72,42,30.20,30.11,6,1,8,0.00
2013-1-22,60.5,46.3,33.2,43.0,38.3,31.0,91,75,50,30.15,30.02,7,1,12,0.00
2013-1-23,53.6,48.7,45.0,50.0,45.1,42.0,95,88,74,30.11,29.99,8,1,10,0.07
2013-1-24,57.5,51.7,48.0,52.0,49.7,47.0,96,93,78,30.20,30.08,5,1,7,0.09
2013-1-25,65.9,55.6,49.6,56.0,52.0,48.0,98,88,70,30.20,30.04,9,1,12,0.01
2013-1-26,58.2,49.8,43.6,50.0,44.4,38.0,98,83,49,30.09,29.99,10,3,15,0.00
2013-1-27,55.9,45.8,36.9,40.0,35.8,29.0,91,71,38,30.19,30.08,7,2,11,0.00
2013-1-28,57.0,46.8,37.5,42.0,37.7,34.0,88,72,47,30.30,30.18,9,2,12,0.00
2013-1-29,59.9,47.3,38.0,44.0,39.7,35.0,91,77,47,30.37,30.27,8,1,12,0.00
2013-1-30,65.6,51.3,41.9,43.0,40.1,38.0,91,69,39,30.35,30.26,7,1,10,0.00
2013-1-31,65.9,49.1,37.3,47.0,41.6,35.0,92,77,51,30.30,30.19,8,1,9,0.00
2013-2-1,65.5,50.1,38.0,47.0,42.8,36.0,94,78,52,30.24,30.14,8,1,10,0.00
2013-2-2,63.7,50.2,42.3,50.0,45.3,41.0,95,84,59,30.31,30.23,8,1,12,0.00
2013-2-3,60.9,50.4,43.1,46.0,44.4,41.0,95,81,59,30.27,30.15,6,2,9,0.00
2013-2-4,65.3,48.9,38.6,52.0,44.3,37.0,97,85,56,30.21,30.07,10,2,13,0.00
2013-2-5,55.2,49.5,44.2,47.0,44.5,41.0,96,83,69,30.16,30.08,9,3,14,0.00
2013-2-6,60.1,46.6,36.6,45.0,40.8,35.0,95,81,53,30.21,30.13,7,1,12,0.01
2013-2-7,55.2,45.3,38.5,46.0,39.5,36.0,94,82,53,30.21,30.02,12,2,15,0.04
2013-2-8,53.7,44.1,37.0,41.0,38.5,34.0,95,82,55,30.03,29.96,11,2,15,0.02
2013-2-9,57.6,43.8,32.9,34.0,30.0,25.0,90,63,30,30.14,30.02,9,2,13,0.00
2013-2-10,59.6,44.7,31.7,38.0,33.8,29.0,88,68,39,30.17,30.05,9,2,18,0.00
2013-2-11,62.2,47.3,34.7,37.0,32.2,24.0,89,62,25,30.26,30.10,9,2,15,0.00
2013-2-12,61.8,46.6,34.1,41.0,35.9,31.0,87,69,43,30.37,30.26,7,2,10,0.00
2013-2-13,65.8,49.1,35.7,45.0,37.6,33.0,90,68,33,30.36,30.22,7,1,11,0.00
2013-2-14,71.0,53.1,38.6,44.0,39.8,36.0,90,65,31,30.26,30.17,12,2,16,0.00
2013-2-15,70.5,53.9,40.7,46.0,41.4,37.0,87,66,38,30.28,30.22,6,2,11,0.00
2013-2-16,68.2,52.9,39.9,49.0,43.5,38.0,92,73,45,30.27,30.07,6,1,8,0.00
2013-2-17,65.6,52.2,42.4,47.0,43.5,38.0,96,75,37,30.09,29.98,8,3,13,0.00
2013-2-18,52.4,46.8,40.2,43.0,40.4,37.0,93,79,62,30.05,29.98,13,4,15,0.00
2013-2-19,47.5,43.2,36.1,43.0,38.1,33.0,91,82,65,29.99,29.75,16,2,21,0.39
2013-2-20,59.5,45.1,32.8,43.0,35.5,31.0,93,73,36,30.09,29.87,8,2,14,0.01
2013-2-21,60.8,46.7,35.3,39.0,35.1,29.0,93,69,31,30.20,30.07,10,2,21,0.00
2013-2-22,63.4,47.9,35.7,45.0,38.3,33.0,91,73,37,30.27,30.20,11,2,15,0.00
2013-2-23,58.9,50.0,40.6,46.0,38.3,31.0,93,68,35,30.28,30.18,11,4,16,0.01
2013-2-24,63.1,49.2,37.6,35.0,27.0,16.0,83,47,17,30.29,30.19,13,3,17,0.00
2013-2-25,63.5,48.8,35.7,46.0,37.7,30.0,88,68,42,30.29,30.17,10,3,14,0.00
2013-2-26,68.5,51.1,36.5,38.0,30.9,19.0,92,56,16,30.24,30.14,14,3,17,0.00
2013-2-27,70.2,52.1,36.7,45.0,37.0,32.0,88,61,28,30.38,30.23,7,2,12,0.00
2013-2-28,69.0,54.4,42.7,53.0,47.1,40.0,91,78,56,30.46,30.38,8,2,14,0.00
2013-3-1,74.3,56.9,43.9,51.0,47.0,42.0,94,73,42,30.45,30.25,7,1,10,0.00
2013-3-2,71.6,58.0,47.0,52.0,48.2,44.0,90,71,50,30.27,30.07,8,2,11,0.00
2013-3-3,63.9,54.4,47.7,49.0,47.1,45.0,89,77,54,30.12,30.04,12,4,18,0.00
2013-3-4,59.7,49.8,45.4,47.0,44.4,41.0,91,82,62,30.16,30.06,14,4,15,0.00
2013-3-5,59.1,50.8,44.1,44.0,41.5,38.0,89,72,49,30.09,29.86,18,5,28,0.05
2013-3-6,55.1,49.8,40.5,46.0,41.3,37.0,89,73,53,30.09,29.85,19,4,38,0.13
2013-3-7,57.5,48.0,38.0,45.0,39.1,34.0,92,74,45,30.02,29.87,7,1,11,0.02
2013-3-8,60.3,49.8,41.3,45.0,42.3,38.0,94,77,51,30.07,29.84,10,2,17,0.01
2013-3-9,67.8,51.6,38.3,44.0,39.7,35.0,94,68,30,30.33,30.08,12,2,16,0.00
2013-3-10,70.3,53.8,37.4,44.0,36.3,28.0,92,58,22,30.38,30.27,10,2,14,0.00
2013-3-11,73.5,55.7,40.2,46.0,39.6,36.0,85,59,28,30.28,30.11,9,2,13,0.00
2013-3-12,77.2,59.1,44.0,50.0,45.3,40.0,86,63,36,30.16,30.07,7,2,11,0.00
2013-3-13,78.2,62.1,47.1,55.0,50.4,45.0,92,68,44,30.17,30.06,8,2,12,0.00
2013-3-14,74.1,60.7,50.1,57.0,51.0,47.0,92,72,42,30.16,30.09,10,2,13,0.00
2013-3-15,73.8,60.1,47.8,53.0,48.0,44.0,89,66,45,30.14,30.04,11,3,15,0.00
2013-3-16,72.6,56.1,46.6,53.0,47.9,46.0,97,77,43,30.12,30.04,11,4,16,0.00
2013-3-17,70.1,55.2,43.7,46.0,43.6,40.0,90,68,35,30.17,30.05,9,2,17,0.00
2013-3-18,68.3,53.9,42.5,48.0,43.9,40.0,90,71,46,30.12,29.53,8,3,13,0.00
2013-3-19,71.6,55.6,46.6,47.0,44.0,39.0,89,68,35,29.64,29.57,12,3,17,0.03
2013-3-20,65.0,55.4,50.4,55.0,50.9,46.0,94,85,57,29.64,29.58,10,3,16,0.02
2013-3-21,65.6,53.6,42.6,50.0,42.7,37.0,93,70,35,29.64,29.51,11,3,15,0.00
2013-3-22,69.4,54.4,40.2,42.0,27.4,7.0,91,47,9,29.62,29.53,19,4,23,0.00
2013-3-23,69.5,53.8,38.9,37.0,31.1,21.0,77,48,18,29.66,29.55,9,2,13,0.00
2013-3-24,72.9,54.7,41.6,48.0,41.3,36.0,86,63,34,29.61,29.47,9,2,14,0.00
2013-3-25,61.2,51.2,43.8,46.0,43.7,41.0,92,77,52,29.52,29.45,10,4,17,0.00
2013-3-26,69.3,54.9,47.7,49.0,45.0,43.0,85,71,45,29.52,29.43,8,4,14,0.00
2013-3-27,66.0,56.1,47.6,52.0,48.2,43.0,87,76,58,29.53,29.46,11,3,16,0.00
2013-3-28,71.9,58.3,54.1,55.0,52.6,51.0,95,83,49,29.59,29.52,6,1,8,0.04
2013-4-5,64.3,58.9,52.7,53.0,50.8,49.0,91,75,59,30.20,29.63,12,4,15,0.00
2013-4-6,65.6,57.3,52.9,55.0,51.7,50.0,91,82,66,30.22,30.14,13,3,15,0.00
2013-4-7,64.2,56.0,51.0,53.0,50.1,46.0,93,81,62,30.19,29.86,16,4,21,0.12
2013-4-8,67.9,55.4,45.7,50.0,36.3,23.0,91,55,19,30.03,29.82,19,8,26,0.02
2013-4-9,75.0,61.1,45.6,41.0,33.1,25.0,76,40,16,30.10,30.03,16,5,25,0.00
2013-4-10,85.5,68.2,52.3,54.0,45.2,35.0,89,46,27,30.18,30.02,14,4,18,0.00
2013-4-11,70.9,58.6,50.1,51.0,48.9,46.0,92,73,44,30.05,29.85,12,5,18,0.00
2013-4-12,76.8,57.7,45.1,52.0,46.9,43.0,92,71,36,29.93,29.83,15,5,17,0.00
2013-4-13,66.8,55.7,47.7,50.0,46.3,44.0,89,72,51,29.92,29.83,16,5,18,0.00
2013-4-14,66.5,54.8,43.8,47.0,42.8,38.0,90,67,36,29.95,29.86,11,4,16,0.00
2013-4-15,60.8,51.6,45.9,47.0,40.2,32.0,91,67,39,29.96,29.86,20,4,27,0.00
2013-4-16,66.8,54.3,39.4,37.0,30.6,19.0,82,47,16,30.16,29.97,14,4,21,0.00
2013-4-17,69.0,57.9,46.1,35.0,27.9,20.0,58,34,16,30.29,30.17,15,5,22,0.00
2013-4-18,76.3,59.3,42.7,41.0,35.0,31.0,74,45,20,30.30,30.18,10,2,15,0.00
2013-4-19,82.3,63.9,47.2,51.0,44.6,39.0,76,53,27,30.25,30.07,10,3,17,0.00
2013-4-20,80.1,64.4,49.2,49.0,44.3,36.0,86,54,21,30.12,29.98,14,3,18,0.00
2013-4-21,86.7,68.0,48.6,47.0,42.1,33.0,82,46,15,30.05,29.92,9,2,17,0.00
2013-4-22,88.3,70.3,52.8,48.0,42.6,31.0,76,44,13,29.97,29.84,13,3,17,0.00
2013-4-23,82.6,68.2,51.3,48.0,32.8,20.0,80,33,11,29.93,29.84,16,5,25,0.00
2013-4-24,71.0,58.0,46.8,51.0,46.3,42.0,87,67,41,29.95,29.82,17,5,24,0.00
2013-4-25,67.2,57.1,51.4,51.0,48.9,47.0,89,75,57,30.14,29.95,13,4,18,0.00
2013-4-26,73.7,58.2,49.1,54.0,49.0,46.0,90,73,45,30.23,30.14,12,4,18,0.00
2013-4-27,80.5,61.0,48.1,57.0,49.9,46.0,91,70,43,30.23,30.06,11,4,16,0.00
2013-4-28,88.5,67.5,49.0,57.0,51.0,46.0,91,60,29,30.07,29.87,9,2,11,0.00
2013-4-29,89.7,71.8,55.8,54.0,50.6,44.0,84,53,20,29.89,29.74,11,4,15,0.00
2013-4-30,84.9,68.0,53.3,52.0,40.9,18.0,87,47,11,29.84,29.77,9,3,15,0.00
2013-5-1,86.4,73.6,62.0,38.0,24.1,16.0,42,17,11,30.07,29.83,15,6,30,0.00
2013-5-2,90.9,72.7,54.3,42.0,34.1,20.0,61,30,10,30.16,30.05,9,2,13,0.00
2013-5-3,90.7,72.4,54.3,42.0,36.3,28.0,60,31,13,30.07,29.78,11,3,17,0.00
2013-5-4,88.1,70.6,55.2,50.0,40.6,31.0,79,39,14,29.78,29.52,9,3,17,0.00
2013-5-5,68.8,60.6,53.7,51.0,47.5,44.0,75,63,46,29.80,29.59,9,3,19,0.00
2013-5-6,69.9,61.4,53.9,53.0,50.6,47.0,86,69,47,29.97,29.81,7,2,13,0.00
2013-5-7,72.1,61.6,52.3,53.0,50.6,47.0,91,70,43,30.04,29.96,10,3,15,0.00
2013-5-8,66.8,57.2,53.0,52.0,50.3,49.0,90,79,55,30.15,30.03,12,4,17,0.00
2013-5-9,68.5,57.3,51.6,53.0,49.9,48.0,89,77,56,30.18,30.08,15,5,18,0.00
2013-5-10,74.6,58.4,50.6,57.0,51.7,48.0,93,80,53,30.19,30.09,13,6,19,0.00
2013-5-11,90.0,68.4,51.4,60.0,52.7,43.0,94,63,21,30.15,30.02,12,4,14,0.00
2013-5-12,84.5,68.0,55.4,58.0,53.5,49.0,83,62,38,30.13,30.01,13,5,16,0.00
2013-5-13,80.9,63.7,51.5,58.0,52.7,48.0,91,70,44,30.09,29.94,14,5,19,0.00
2013-5-14,72.3,60.2,52.4,54.0,50.1,46.0,90,71,46,30.02,29.93,13,6,21,0.00
2013-5-15,65.3,56.2,50.9,51.0,47.9,46.0,88,74,53,30.07,30.01,17,5,20,0.00
2013-5-16,68.0,58.4,52.4,56.0,51.8,49.0,94,80,56,30.04,29.96,12,5,22,0.00
2013-5-17,67.8,57.5,51.5,49.0,47.5,44.0,88,71,45,30.09,29.98,12,5,16,0.00
2013-5-18,74.3,60.6,51.4,53.0,49.7,47.0,86,70,41,30.14,30.08,12,4,17,0.00
2013-5-19,84.5,66.4,50.4,52.0,46.4,38.0,91,55,20,30.12,29.96,14,3,17,0.00
2013-5-20,88.8,68.9,51.5,50.0,42.7,29.0,84,47,12,30.00,29.91,15,4,18,0.00
2013-5-21,70.3,59.5,51.4,51.0,47.3,41.0,88,66,40,29.99,29.91,11,5,17,0.00
2013-5-22,67.9,55.4,44.2,45.0,36.1,22.0,83,53,18,30.02,29.91,12,4,19,0.00
2013-5-23,67.9,56.3,47.4,46.0,43.6,40.0,88,65,43,30.01,29.92,13,3,17,0.00
2013-5-24,70.2,56.7,47.6,48.0,44.5,39.0,90,67,32,30.01,29.95,12,4,19,0.00
2013-5-25,65.1,55.2,49.3,49.0,46.4,45.0,87,73,51,30.06,29.98,14,5,21,0.00
2013-5-26,69.4,59.2,52.0,54.0,51.0,49.0,92,76,53,30.14,30.06,13,5,19,0.00
2013-5-27,64.9,57.8,52.3,55.0,52.2,49.0,92,82,67,30.13,30.01,10,3,15,0.00
2013-5-28,71.0,61.5,55.8,57.0,54.5,52.0,95,79,57,30.01,29.92,10,4,19,0.01
2013-5-29,70.2,61.0,53.7,55.0,52.2,49.0,88,74,55,29.98,29.90,11,4,20,0.00
2013-5-30,76.0,61.0,50.1,50.0,48.8,45.0,92,67,39,30.00,29.94,14,4,19,0.00
2013-5-31,91.0,68.9,49.9,51.0,47.1,41.0,86,52,18,30.03,29.90,10,3,17,0.00
2013-6-1,93.8,74.4,55.6,54.0,49.6,44.0,76,47,19,29.92,29.74,8,3,15,0.00
2013-6-2,82.9,67.1,53.7,56.0,51.3,49.0,87,60,33,29.76,29.65,13,6,21,0.00
2013-6-3,77.1,62.8,53.0,55.0,51.5,49.0,88,69,44,29.84,29.70,14,5,19,0.00
2013-6-4,71.3,59.5,53.6,55.0,51.9,50.0,90,77,55,29.96,29.84,12,5,21,0.00
2013-6-5,73.3,60.3,52.8,53.0,51.3,50.0,89,74,49,30.00,29.89,13,5,20,0.00
2013-6-6,81.6,62.8,52.4,57.0,52.8,50.0,93,73,43,29.96,29.82,15,6,19,0.00
2013-6-7,99.6,73.9,52.8,62.0,55.8,50.0,95,60,29,29.87,29.70,10,4,15,0.00
2013-6-8,102.8,79.4,64.4,61.0,56.6,51.0,73,49,24,29.76,29.64,16,5,21,0.00
2013-6-9,73.8,63.2,57.3,57.0,54.9,53.0,88,75,56,29.87,29.75,11,5,19,0.00
2013-6-10,71.5,62.0,55.5,54.0,52.5,51.0,86,72,54,29.94,29.80,9,4,18,0.00
2013-6-11,77.5,63.5,53.7,56.0,53.2,49.0,90,71,46,29.97,29.88,13,3,16,0.00
2013-6-12,77.6,63.4,53.4,51.0,49.4,47.0,86,63,36,29.99,29.89,14,4,20,0.00
2013-6-13,81.2,64.4,50.2,52.0,49.3,46.0,89,62,31,30.09,29.99,11,4,18,0.00
2013-6-14,86.5,68.8,51.8,51.0,45.9,36.0,83,50,18,29.98,29.81,17,3,19,0.00
2013-6-15,72.7,59.7,51.8,53.0,50.3,48.0,91,73,49,30.00,29.82,13,6,21,0.00
2013-6-16,79.5,63.3,52.0,55.0,51.5,49.0,91,69,39,30.08,30.00,13,5,18,0.00
2013-6-17,75.1,62.1,52.9,57.0,53.3,50.0,91,75,51,30.09,30.02,12,5,17,0.00
2013-6-18,69.7,60.5,53.8,54.0,51.1,48.0,92,73,49,30.03,29.97,14,5,19,0.00
2013-6-19,75.0,62.3,51.1,51.0,48.6,46.0,88,64,38,30.05,29.99,12,4,19,0.00
2013-6-20,78.5,63.5,51.9,53.0,49.8,47.0,90,65,34,30.01,29.94,11,3,18,0.00
2013-6-21,82.5,65.0,51.3,54.0,50.2,43.0,90,64,29,29.97,29.90,16,4,17,0.00
2013-6-22,87.5,68.0,53.2,54.0,50.2,44.0,90,58,23,29.93,29.83,14,4,18,0.00
2013-6-23,69.7,61.1,55.2,61.0,57.1,53.0,96,87,72,29.89,29.81,14,4,16,0.00
2013-6-24,66.3,61.8,58.3,60.0,58.2,56.0,92,88,80,29.91,29.79,8,2,10,0.01
2013-6-25,77.5,67.9,61.5,65.0,61.4,57.0,91,80,65,29.98,29.89,9,3,15,0.01
2013-6-26,84.3,72.0,63.6,64.0,61.5,59.0,90,72,47,30.04,29.96,10,3,15,0.00
2013-6-27,93.0,74.4,59.3,64.0,60.2,57.0,94,66,33,30.06,29.98,8,3,15,0.00
2013-6-28,99.6,82.1,63.3,63.0,58.3,53.0,81,49,22,30.01,29.86,13,4,16,0.00
2013-6-29,102.3,83.4,65.5,60.0,57.1,52.0,71,44,23,29.89,29.75,10,4,17,0.00
2013-6-30,95.0,78.5,63.8,60.0,57.1,54.0,77,50,29,29.81,29.71,13,5,17,0.00
2013-7-1,98.1,80.0,62.9,62.0,57.0,52.0,79,49,27,29.80,29.76,11,4,17,0.00
2013-7-2,97.2,79.1,62.5,63.0,58.3,56.0,79,51,29,29.88,29.78,12,4,18,0.00
2013-7-3,97.0,78.9,61.8,61.0,57.4,52.0,82,52,28,29.87,29.73,9,4,18,0.00
2013-7-4,98.6,81.3,67.0,62.0,57.9,52.0,63,47,28,29.74,29.64,13,5,18,0.00
2013-7-5,72.8,62.0,55.7,55.0,52.9,50.0,88,73,52,29.79,29.69,14,7,21,0.00
2013-7-6,80.2,62.6,55.0,56.0,53.3,52.0,88,74,44,29.80,29.70,10,4,17,0.00
2013-7-7,85.5,66.7,54.4,56.0,53.3,50.0,92,67,30,29.84,29.75,13,4,18,0.00
2013-7-8,88.8,65.7,54.6,55.0,52.8,48.0,93,69,26,29.95,29.84,9,4,13,0.00
2013-7-9,99.1,77.0,58.6,57.0,51.5,32.0,85,49,10,30.00,29.88,12,3,16,0.00
2013-7-10,89.3,68.1,53.7,56.0,51.9,47.0,93,61,23,29.95,29.85,13,5,19,0.00
2013-7-11,76.9,61.0,53.5,55.0,52.4,51.0,92,76,46,29.94,29.86,13,5,18,0.00
2013-7-12,80.6,64.6,54.4,55.0,51.9,48.0,90,67,35,29.93,29.85,14,4,18,0.00
2013-7-13,87.6,70.0,55.4,55.0,50.8,45.0,87,56,27,29.94,29.87,11,4,15,0.00
2013-7-14,82.9,65.8,52.8,55.0,51.8,48.0,92,65,33,29.98,29.86,14,5,19,0.00
2013-7-15,75.1,59.2,53.0,55.0,52.2,51.0,93,79,48,29.92,29.82,12,5,18,0.00
2013-7-16,71.1,61.8,56.9,55.0,53.4,52.0,86,75,56,30.03,29.87,13,5,18,0.00
2013-7-17,79.6,64.7,55.4,57.0,54.9,53.0,90,73,45,30.10,30.00,14,5,18,0.00
2013-7-18,89.2,67.7,54.2,56.0,52.5,42.0,94,65,20,30.06,29.91,12,4,16,0.00
2013-7-19,87.8,68.0,54.2,58.0,54.5,51.0,93,67,34,29.93,29.78,14,5,19,0.00
2013-7-20,87.2,66.0,54.0,58.0,54.4,51.0,94,70,35,29.84,29.70,12,5,19,0.00
2013-7-21,87.0,67.5,54.3,58.0,54.4,51.0,93,67,37,29.86,29.74,12,4,16,0.00
2013-7-22,85.4,67.5,55.8,58.0,55.5,53.0,93,68,34,29.93,29.86,11,4,18,0.00
2013-7-23,85.1,71.7,62.5,58.0,53.2,45.0,78,55,27,29.98,29.91,9,4,15,0.00
2013-7-24,91.6,74.6,61.3,57.0,52.8,42.0,82,52,18,29.96,29.86,11,5,17,0.00
2013-7-25,83.9,69.9,59.5,56.0,52.4,46.0,81,56,31,30.00,29.90,17,6,20,0.00
2013-7-26,86.2,67.0,54.8,57.0,54.5,52.0,93,68,36,30.07,29.97,15,5,19,0.00
2013-7-27,81.4,65.3,55.1,59.0,55.3,53.0,95,74,45,30.01,29.83,12,5,16,0.00
2013-7-28,76.2,62.7,55.3,57.0,54.8,52.0,95,78,50,29.86,29.78,18,6,21,0.00
2013-7-29,76.3,62.2,55.6,56.0,53.6,52.0,90,75,49,29.99,29.83,9,5,16,0.00
2013-7-30,81.3,64.4,55.6,56.0,53.6,52.0,90,71,39,30.08,30.00,12,4,18,0.00
2013-7-31,76.8,62.3,54.2,56.0,53.2,51.0,93,74,44,30.08,29.99,16,6,20,0.00
2013-8-1,74.2,61.3,55.7,53.0,52.5,51.0,88,75,45,30.07,29.95,13,5,19,0.00
2013-8-2,82.0,64.2,54.6,55.0,52.9,51.0,92,71,36,29.98,29.87,14,5,19,0.00
2013-8-3,81.1,64.6,54.6,56.0,53.8,52.0,91,71,40,29.97,29.88,11,5,16,0.00
2013-8-4,77.9,61.2,53.6,56.0,53.5,51.0,94,78,45,30.00,29.92,14,5,19,0.00
2013-8-5,77.7,61.3,54.2,56.0,53.5,51.0,94,78,46,30.02,29.93,16,5,19,0.00
2013-8-6,72.6,60.5,53.9,55.0,53.7,52.0,93,80,54,30.04,29.97,16,5,17,0.00
2013-8-7,72.3,62.3,56.4,56.0,54.7,53.0,93,77,55,30.10,30.03,10,4,16,0.00
2013-8-8,75.5,62.6,55.8,58.0,55.4,53.0,93,79,53,30.03,29.93,10,4,17,0.00
2013-8-9,73.6,61.2,54.8,57.0,54.6,52.0,92,80,56,29.99,29.91,10,5,15,0.00
2013-8-10,77.1,63.3,56.0,58.0,56.0,53.0,92,79,51,30.05,29.98,12,4,18,0.00
2013-8-11,80.5,63.7,55.7,58.0,56.0,53.0,96,79,44,30.02,29.92,15,5,17,0.00
2013-8-12,84.6,67.3,55.8,57.0,54.0,51.0,93,67,34,29.98,29.92,11,4,15,0.00
2013-8-13,93.1,70.0,53.4,56.0,53.0,50.0,91,61,25,29.98,29.88,10,4,17,0.00
2013-8-14,83.6,66.3,55.2,60.0,55.7,52.0,92,72,36,29.97,29.89,13,5,17,0.00
2013-8-15,85.7,70.0,59.9,65.0,61.4,57.0,93,76,47,29.95,29.89,14,4,17,0.00
2013-8-16,87.6,71.4,59.8,64.0,59.8,54.0,96,72,34,29.97,29.90,14,5,16,0.00
2013-8-17,77.5,65.5,58.8,60.0,57.4,55.0,91,77,52,29.98,29.86,12,5,18,0.00
2013-8-18,97.6,75.4,56.9,64.0,58.3,52.0,93,61,22,29.88,29.74,9,2,11,0.00
2013-8-19,98.6,79.0,66.1,62.0,57.5,50.0,75,51,28,29.86,29.76,12,4,16,0.00
2013-8-20,87.5,70.1,58.8,60.0,56.4,52.0,91,65,35,29.86,29.77,14,4,20,0.00
2013-8-21,80.6,65.1,56.7,57.0,55.0,53.0,91,72,43,29.92,29.82,14,4,17,0.00
2013-8-22,76.0,63.8,57.3,56.0,54.7,53.0,89,74,48,29.96,29.87,17,5,18,0.00
2013-8-23,76.6,63.2,57.8,57.0,55.1,54.0,88,76,49,29.93,29.80,15,5,18,0.00
2013-8-24,79.7,65.8,57.2,59.0,56.8,54.0,90,75,49,29.89,29.84,12,4,19,0.00
2013-8-25,83.2,67.9,61.1,63.0,60.4,57.0,94,79,49,29.93,29.87,11,4,17,0.00
2013-8-26,80.8,67.0,59.4,59.0,57.2,56.0,90,73,47,30.00,29.88,10,4,17,0.00
2013-8-27,84.2,67.1,55.5,59.0,56.5,53.0,91,72,37,29.90,29.79,14,4,18,0.00
2013-8-28,84.7,68.7,59.0,63.0,59.8,57.0,94,76,43,29.93,29.85,11,4,15,0.00
2013-8-29,85.1,69.1,59.6,64.0,60.9,58.0,95,78,46,30.04,29.93,12,4,14,0.00
2013-8-30,92.9,73.7,60.7,63.0,60.6,55.0,95,69,29,30.03,29.89,12,4,17,0.00
2013-8-31,83.4,68.9,58.8,59.0,56.6,51.0,92,68,33,29.95,29.87,12,4,17,0.00
2013-9-1,84.3,68.5,59.4,61.0,57.8,55.0,90,72,39,29.93,29.86,9,4,15,0.00
2013-9-2,81.3,69.1,63.3,63.0,61.3,60.0,91,78,49,29.94,29.87,9,4,15,0.00
2013-9-3,78.1,67.4,59.3,60.0,57.1,50.0,90,72,38,29.99,29.91,11,4,16,0.00
2013-9-4,79.1,67.3,58.9,60.0,57.8,56.0,92,74,46,30.02,29.92,13,4,17,0.00
2013-9-5,79.6,67.2,60.3,59.0,57.4,54.0,88,73,44,30.00,29.93,10,3,16,0.00
2013-9-6,91.7,72.3,54.3,57.0,52.3,44.0,93,57,21,29.98,29.81,8,2,12,0.00
2013-9-7,96.5,76.5,57.7,52.0,49.2,43.0,76,44,18,29.87,29.77,9,2,13,0.00
2013-9-8,94.7,76.7,60.4,60.0,53.8,50.0,73,48,23,29.84,29.71,11,3,14,0.00
2013-9-9,96.0,76.2,61.7,60.0,53.3,46.0,71,49,22,29.79,29.66,11,4,17,0.00
2013-9-10,80.2,67.6,58.0,60.0,57.8,55.0,93,72,51,29.87,29.70,13,5,17,0.00
2013-9-11,75.5,65.8,60.3,59.0,57.7,56.0,87,76,56,29.98,29.87,10,4,14,0.00
2013-9-12,80.3,66.3,59.8,62.0,59.2,57.0,92,79,51,29.97,29.85,12,4,19,0.00
2013-9-13,80.5,63.9,57.6,59.0,56.7,55.0,94,79,48,29.90,29.74,13,5,19,0.00
2013-9-14,69.8,60.8,56.7,59.0,56.1,55.0,93,85,67,29.83,29.73,14,6,19,0.00
2013-9-15,78.8,64.8,57.0,59.0,56.3,53.0,91,76,48,29.87,29.79,11,5,17,0.00
2013-9-16,82.3,66.4,59.1,60.0,58.1,55.0,94,77,45,29.89,29.77,12,4,18,0.00
2013-9-17,75.4,64.8,58.7,56.0,55.1,52.0,88,73,45,29.87,29.82,15,4,17,0.00
2013-9-18,83.9,66.4,51.9,54.0,49.1,38.0,93,60,20,29.91,29.80,12,3,16,0.00
2013-9-19,91.7,69.9,51.7,54.0,45.4,38.0,78,49,15,29.85,29.72,8,2,12,0.00
2013-9-20,73.2,63.6,55.5,60.0,56.2,49.0,89,77,62,29.86,29.75,13,4,17,0.00
2013-9-21,67.7,61.9,55.7,60.0,56.7,53.0,93,83,63,29.89,29.80,9,3,13,0.48
2013-9-22,73.0,61.0,49.5,55.0,52.8,48.0,96,77,49,30.00,29.90,9,2,16,0.01
2013-9-23,82.8,65.8,52.2,60.0,54.9,50.0,93,71,36,30.03,29.91,9,2,16,0.00
2013-9-24,74.8,64.2,57.5,58.0,54.1,47.0,90,71,48,29.98,29.89,15,4,20,0.00
2013-9-25,69.2,60.0,52.6,49.0,46.4,44.0,81,63,40,29.93,29.81,15,4,16,0.00
2013-9-26,75.2,59.4,45.8,46.0,43.0,36.0,89,59,25,29.98,29.83,8,2,15,0.00
2013-9-27,77.6,62.0,48.5,45.0,39.6,33.0,78,49,20,30.10,29.99,9,2,14,0.00
2013-9-28,84.7,64.3,47.9,56.0,41.4,21.0,88,51,10,30.09,29.98,11,2,15,0.00
2013-9-29,76.2,64.2,54.9,59.0,56.7,53.0,93,78,53,30.11,30.04,7,2,12,0.00
2013-9-30,75.4,66.2,58.8,61.0,59.3,56.0,91,79,58,30.07,29.95,7,3,14,0.00
2013-10-1,72.9,61.2,50.2,56.0,51.1,47.0,91,71,49,30.01,29.91,9,2,14,0.00
2013-10-2,77.0,61.1,50.1,52.0,49.0,46.0,90,68,35,30.00,29.93,11,2,16,0.00
2013-10-3,73.3,61.0,46.3,48.0,36.8,28.0,87,48,19,30.07,29.94,14,4,24,0.00
2013-10-4,79.2,68.2,56.0,36.0,30.2,27.0,48,25,16,30.10,29.98,22,6,28,0.00
2013-10-5,83.7,64.9,48.0,38.0,33.8,25.0,64,36,13,30.21,30.10,7,2,11,0.00
2013-10-6,83.1,64.1,47.7,43.0,38.6,35.0,69,43,19,30.14,30.00,9,2,10,0.00
2013-10-7,83.8,65.4,51.2,51.0,38.7,26.0,74,44,13,30.00,29.86,10,2,13,0.00
2013-10-8,75.7,60.9,48.2,49.0,45.3,39.0,85,60,30,29.90,29.72,10,3,15,0.00
2013-10-9,69.0,57.6,48.4,49.0,45.9,42.0,91,68,41,29.76,29.63,13,3,17,0.00
2013-10-10,73.7,59.4,48.3,49.0,44.1,41.0,80,60,32,30.00,29.76,8,2,13,0.00
2013-10-11,72.0,57.6,48.0,52.0,48.1,44.0,93,73,45,30.08,29.96,8,3,13,0.00
2013-10-12,72.1,56.0,44.3,49.0,46.0,42.0,91,72,39,30.01,29.91,10,3,17,0.00
2013-10-13,73.5,58.6,46.0,51.0,44.2,38.0,93,64,28,30.07,29.93,9,3,15,0.00
2013-10-14,76.9,59.6,45.2,44.0,40.3,35.0,84,54,22,30.14,30.00,8,2,13,0.00
2013-10-15,79.4,61.2,45.2,40.0,36.7,30.0,75,46,17,30.05,29.95,10,2,14,0.00
2013-10-16,81.1,62.3,46.7,40.0,37.7,35.0,71,45,21,30.10,30.00,7,2,11,0.00
2013-10-17,81.7,62.7,47.4,41.0,36.7,31.0,72,43,17,30.09,29.95,10,2,11,0.00
2013-10-18,81.6,62.5,47.0,44.0,38.7,35.0,68,46,22,30.06,29.96,8,2,9,0.00
2013-10-19,83.1,63.1,47.2,45.0,42.3,40.0,81,51,23,30.08,29.98,6,1,10,0.00
2013-10-20,83.5,63.2,46.9,50.0,44.8,42.0,82,55,27,30.02,29.89,7,2,12,0.00
2013-10-21,80.1,61.5,48.4,53.0,48.7,46.0,92,66,34,30.00,29.89,6,2,9,0.00
2013-10-22,81.1,61.4,47.1,55.0,49.4,44.0,91,68,33,30.02,29.89,5,2,9,0.00
2013-10-23,78.8,57.5,46.8,55.0,49.4,44.0,94,77,43,29.97,29.87,11,3,17,0.00
2013-10-24,60.7,54.0,50.6,50.0,49.0,48.0,94,83,67,30.11,29.97,11,4,17,0.00
2013-10-25,74.0,58.7,49.6,52.0,49.0,47.0,92,73,41,30.18,30.07,8,2,11,0.00
2013-10-26,79.3,60.3,45.9,50.0,46.3,42.0,92,65,31,30.16,30.01,7,2,11,0.00
2013-10-27,57.4,52.9,47.7,50.0,47.8,45.0,95,83,72,30.02,29.67,21,6,32,0.00
2013-10-28,62.0,53.1,45.7,49.0,46.3,43.0,92,79,54,29.86,29.68,15,3,18,0.00
2013-10-29,63.5,55.6,47.2,50.0,47.0,44.0,88,74,51,30.06,29.86,8,2,13,0.00
2013-10-30,67.2,53.0,42.5,48.0,43.8,40.0,92,73,44,30.16,30.06,5,1,11,0.00
2013-10-31,73.0,55.9,42.6,46.0,43.2,40.0,91,67,33,30.20,30.07,9,1,11,0.00
2013-11-1,75.1,57.2,44.2,47.0,44.2,41.0,87,65,36,30.16,30.02,7,1,9,0.00
2013-11-2,73.2,55.9,44.3,52.0,46.4,40.0,89,73,44,30.03,29.90,11,2,15,0.00
2013-11-3,64.0,51.8,40.5,47.0,37.0,27.0,94,63,25,30.04,29.93,9,2,13,0.00
2013-11-4,68.4,53.2,38.2,39.0,32.2,25.0,87,51,20,30.05,29.92,13,2,16,0.00
2013-11-5,71.3,58.0,45.2,38.0,34.3,30.0,66,43,26,30.21,30.05,11,2,15,0.00
2013-11-6,71.0,56.2,43.5,42.0,39.2,37.0,78,56,29,30.25,30.17,7,1,11,0.00
2013-11-7,76.4,59.2,47.3,48.0,41.0,36.0,81,55,25,30.17,30.06,8,1,11,0.00
2013-11-8,75.0,57.8,44.9,52.0,46.3,40.0,87,69,34,30.08,29.95,9,2,13,0.00
2013-11-9,72.9,56.5,44.1,48.0,45.4,41.0,90,69,40,30.03,29.96,6,1,9,0.00
2013-11-10,70.2,55.0,44.2,51.0,46.6,41.0,92,75,43,30.11,30.03,7,2,10,0.00
2013-11-11,66.7,55.9,45.7,51.0,48.3,44.0,96,77,53,30.16,30.08,5,1,11,0.00
2013-11-12,72.8,59.8,49.8,50.0,46.9,43.0,82,64,37,30.26,30.15,9,2,13,0.00
2013-11-13,78.1,58.7,44.5,53.0,46.7,41.0,89,68,33,30.24,30.09,7,1,12,0.00
2013-11-14,70.0,54.8,48.2,55.0,49.8,46.0,95,84,58,30.10,29.86,15,3,15,0.00
2013-11-15,65.6,52.9,43.3,48.0,42.8,35.0,91,71,33,29.87,29.73,8,2,13,0.00
2013-11-16,63.5,52.1,44.4,49.0,45.3,41.0,93,79,48,29.93,29.75,10,2,14,0.00
2013-11-17,63.3,54.0,46.8,50.0,46.6,43.0,93,77,52,30.08,29.93,5,1,8,0.00
2013-11-18,60.3,50.5,42.6,48.0,44.9,41.0,92,82,58,30.15,30.08,8,2,12,0.00
2013-11-19,60.6,54.5,49.5,55.0,50.6,46.0,95,87,71,30.10,29.95,4,1,8,0.00
2013-11-20,60.0,56.3,52.2,57.0,54.6,51.0,97,94,89,29.95,29.84,4,0,7,0.00
2013-11-21,60.5,54.2,48.8,51.0,35.2,20.0,96,56,26,29.99,29.90,19,6,29,0.01
2013-11-22,68.6,58.3,48.2,29.0,17.8,8.0,47,22,13,30.03,29.89,16,5,24,0.00
2013-11-23,64.7,50.5,40.1,39.0,35.4,27.0,81,59,33,30.09,29.94,6,0,6,0.00
2013-11-24,63.5,48.0,37.4,43.0,39.0,35.0,93,74,43,30.24,30.09,7,0,9,0.00
2013-11-25,63.3,48.0,37.4,47.0,41.3,36.0,94,79,53,30.34,30.24,6,0,8,0.00
2013-11-26,61.5,49.1,40.3,44.0,41.5,38.0,93,77,48,30.26,30.03,7,0,9,0.00
2013-11-27,60.4,49.4,40.4,47.0,43.8,39.0,94,82,62,30.03,29.85,8,1,10,0.00
2013-11-28,67.6,51.5,41.0,44.0,42.0,40.0,95,74,40,30.07,29.86,7,0,11,0.00
2013-11-29,70.1,51.7,39.5,46.0,41.9,37.0,93,72,38,30.20,30.07,6,0,9,0.00
2013-11-30,66.9,50.4,40.4,46.0,42.1,38.0,93,76,44,30.26,30.18,8,1,10,0.00
2013-12-1,69.4,51.9,39.8,46.0,42.4,38.0,94,73,41,30.34,30.22,7,0,12,0.00
2013-12-2,62.8,50.8,39.9,51.0,45.7,38.0,94,83,61,30.22,29.96,11,2,17,0.00
2013-12-3,54.0,48.2,37.2,53.0,37.0,25.0,96,67,46,29.94,29.85,14,2,16,0.00
2013-12-4,51.3,38.5,29.0,27.0,21.1,14.0,77,54,24,30.09,29.93,8,1,13,0.00
2013-12-5,50.5,35.4,25.2,22.0,18.9,15.0,79,55,25,30.19,30.09,5,0,8,0.00
2013-12-6,50.8,40.0,27.1,46.0,30.6,21.0,93,71,42,30.20,29.90,13,1,20,0.33
2013-12-7,47.0,41.1,30.8,44.0,30.6,23.0,93,68,42,30.27,29.91,11,3,20,0.01
2013-12-8,45.0,34.4,28.1,28.0,23.5,18.0,93,67,38,30.35,30.25,10,1,14,0.00
2013-12-9,50.8,37.6,29.4,27.0,20.3,12.0,83,53,30,30.45,30.33,8,1,12,0.00
2013-12-10,52.9,37.5,26.1,31.0,26.8,23.0,90,69,36,30.44,30.23,6,0,8,0.00
2013-12-11,56.9,40.1,29.0,33.0,29.4,25.0,90,69,35,30.26,30.19,5,0,7,0.00
2013-12-12,58.8,41.5,29.3,36.0,32.0,27.0,91,72,39,30.29,30.18,4,0,7,0.00
2013-12-13,60.1,43.0,31.0,38.0,33.4,29.0,95,72,39,30.34,30.24,5,0,7,0.01
2013-12-14,61.2,43.2,31.8,39.0,33.4,29.0,90,71,35,30.41,30.32,5,1,10,0.00
2013-12-15,61.6,43.7,31.5,39.0,34.1,28.0,91,72,42,30.40,30.26,6,1,10,0.00
2013-12-16,66.8,47.8,35.8,39.0,35.6,33.0,90,67,31,30.28,30.14,6,0,7,0.00
2013-12-17,62.7,47.5,37.8,43.0,38.7,35.0,91,73,46,30.20,30.06,5,0,6,0.00
2013-12-18,61.0,49.1,40.7,47.0,41.6,37.0,92,77,42,30.05,29.78,12,1,15,0.00
2013-12-19,59.8,49.1,38.8,45.0,31.9,20.0,92,57,29,29.95,29.73,13,2,19,0.00
2013-12-20,60.4,46.7,34.8,27.0,18.9,6.0,57,38,12,30.02,29.94,9,1,15,0.00
2013-12-21,62.3,47.4,36.4,46.0,34.1,25.0,90,63,32,30.10,29.98,8,1,11,0.00
2013-12-22,66.1,49.2,36.5,41.0,37.7,34.0,93,68,36,30.30,30.11,8,0,12,0.00
2013-12-23,61.3,47.0,36.9,42.0,37.6,34.0,89,72,46,30.39,30.30,8,1,11,0.00
2013-12-24,68.3,49.7,38.4,42.0,37.9,35.0,88,67,37,30.36,30.21,8,1,12,0.00
2013-12-25,63.8,47.1,36.0,44.0,38.2,32.0,92,73,46,30.31,30.21,8,1,9,0.00
2013-12-26,66.3,47.4,35.5,42.0,36.1,33.0,90,69,34,30.27,30.18,7,0,8,0.00
2013-12-27,57.7,44.9,35.1,44.0,37.4,31.0,89,76,54,30.26,30.14,4,0,8,0.00
2013-12-28,66.7,47.4,32.6,37.0,31.7,26.0,92,61,22,30.16,30.03,11,1,18,0.00
2013-12-29,63.1,50.1,39.2,33.0,27.4,18.0,75,45,21,30.20,30.10,12,2,15,0.00
2013-12-30,63.7,46.0,34.3,40.0,34.9,30.0,85,68,38,30.27,30.20,7,0,10,0.00
2013-12-31,61.9,45.8,36.2,39.0,34.1,31.0,88,67,33,30.28,30.16,6,0,12,0.00
2014-1-1,65.9,47.0,34.0,35.0,32.4,29.0,84,61,28,30.22,30.13,6,0,8,0.00
2014-1-2,65.4,48.7,37.3,39.0,35.4,32.0,81,62,35,30.19,30.07,7,1,10,0.00